#timestamp,LO_Frequency,Hit 
1502010015.6,286046997.3,N
1502010035.4,286046999.6,N
1502010055.2,286046996.7,N
1502010075.0,286046998.4,N
1502010075.9,286046998.4,N
1502010095.8,286046995.7,N
1502010115.6,286046997.7,N
1502010135.4,286046997.7,N
1502010155.3,286046997.9,N
1502010175.1,286046999.5,N
1502010195.8,286047002.8,N
1502010215.7,286047004.3,N
1502010235.5,286047005.2,N
1502010255.3,286047007.6,N
1502010275.2,286047004.9,N
1502010295.9,286047004.8,N
1502010315.7,286047005.7,N
1502010335.5,286047002.9,N
1502010355.4,286047003.6,N
1502010375.2,286047003.1,N
1502010395.0,286047007.4,N
1502010395.9,286047007.4,N
1502010415.8,286047008.5,N
1502010435.6,286047010.3,N
1502010455.4,286047009.0,N
1502010475.3,286047010.5,N
1502010495.1,286047007.9,N
1502010515.8,286047008.7,N
1502010535.7,286047006.5,N
1502010555.5,286047007.2,N
1502010575.3,286047003.3,N
1502010595.2,286047001.4,N
1502010615.9,286047002.8,N
1502010635.7,286046999.7,N
1502010655.6,286047002.1,N
1502010675.4,286047004.4,N
1502010695.2,286047000.8,N
1502010715.0,286046999.9,N
1502010716.0,286046999.9,N
1502010735.8,286046998.4,N
1502010755.6,286047000.5,N
1502010775.4,286047000.3,N
1502010795.3,286047000.2,N
1502010815.1,286047001.5,N
1502010835.8,286047000.2,N
1502010855.7,286047001.0,N
1502010875.5,286046998.6,N
1502010895.3,286046998.6,N
1502010915.2,286047000.6,N
1502010935.3,286046999.7,N
1502010955.1,286047000.3,N
1502010975.9,286046996.6,N
1502010995.7,286046996.9,N
1502011015.5,286046999.0,N
1502011035.4,286046997.2,N
1502011055.2,286046993.4,N
1502011075.0,286046992.2,N
1502011075.9,286046992.2,N
1502011095.7,286046992.1,N
1502011115.6,286046993.1,N
1502011135.4,286046994.6,N
1502011155.2,286046993.7,N
1502011175.1,286046995.5,N
1502011176.0,286046995.5,N
1502011195.8,286046995.2,N
1502011215.6,286046995.1,N
1502011235.5,286046997.2,N
1502011255.3,286046996.0,N
1502011275.1,286046992.1,N
1502011295.9,286046996.2,N
1502011315.7,286046996.1,N
1502011335.5,286046996.3,N
1502011355.4,286046995.6,N
1502011375.2,286046998.8,N
1502011395.0,286046999.0,N
1502011395.9,286046999.0,N
1502011415.8,286046998.9,N
1502011435.6,286047001.5,N
1502011455.4,286047003.1,N
1502011475.3,286047003.4,N
1502011495.1,286047002.9,N
1502011496.0,286047002.9,N
1502011515.8,286047002.9,N
1502011535.6,286047005.7,N
1502011555.5,286047005.6,N
1502011575.3,286047002.2,N
1502011595.1,286046999.7,N
1502011615.9,286047001.4,N
1502011635.7,286047003.9,N
1502011655.5,286047005.8,N
1502011675.4,286047006.0,N
1502011695.2,286047003.3,N
1502011715.1,286047001.8,N
1502011716.0,286047001.8,N
1502011735.8,286047004.3,N
1502011755.6,286047003.7,N
1502011775.5,286047003.5,N
1502011795.3,286047004.3,N
1502011815.1,286047007.6,N
1502011835.9,286047006.0,N
1502011855.7,286047001.9,N
1502011875.5,286047004.2,N
1502011895.3,286047002.0,N
1502011915.2,286047002.3,N
1502011935.0,286047005.6,N
1502011935.9,286047005.6,N
1502011955.8,286047007.1,P
1502011975.6,286047002.5,N
1502011995.4,286047001.8,N
1502012015.3,286047001.4,N
1502012035.1,286047003.9,N
1502012036.0,286047003.9,N
1502012055.8,286047001.6,N
1502012075.6,286047001.6,N
1502012095.5,286047001.3,N
1502012115.3,286047004.2,N
1502012135.1,286047003.6,N
1502012155.9,286047003.1,N
1502012175.7,286047004.7,P
1502012195.5,286047002.1,N
1502012215.4,286047002.8,N
1502012235.2,286047000.1,N
1502012255.0,286046999.7,N
1502012255.9,286046999.7,N
1502012275.8,286047001.0,N
1502012295.6,286046999.5,N
1502012315.4,286046998.9,N
1502012335.3,286046996.5,N
1502012355.1,286046999.4,N
1502012375.8,286047000.8,N
1502012395.7,286046998.8,N
1502012415.5,286046999.3,N
1502012435.3,286046998.6,N
1502012455.2,286047000.9,N
1502012475.9,286046998.2,N
1502012495.7,286046998.5,N
1502012515.5,286046999.3,N
1502012535.4,286047001.1,N
1502012555.2,286047000.4,N
1502012575.0,286047000.8,N
1502012575.9,286047000.8,N
1502012595.8,286047002.8,N
1502012615.6,286046999.1,N
1502012635.4,286046998.7,N
1502012655.3,286047001.2,N
1502012675.1,286046998.1,N
1502012695.8,286046997.0,N
1502012715.7,286046995.3,N
1502012735.7,286046995.9,N
1502012755.6,286046993.9,P
1502012775.4,286046995.3,N
1502012795.2,286046993.3,N
1502012815.1,286046994.5,N
1502012816.0,286046994.5,N
1502012835.8,286046993.9,P
1502012855.7,286046998.8,N
1502012875.5,286046999.3,N
1502012895.3,286046999.1,N
1502012915.1,286046999.5,N
1502012935.9,286046997.4,N
1502012955.7,286046996.5,N
1502012975.5,286046997.1,N
1502012995.4,286046997.6,N
1502013015.2,286046999.1,N
1502013035.0,286046998.4,N
1502013035.9,286046998.4,N
1502013055.8,286046999.5,N
1502013075.6,286046999.4,N
1502013095.4,286046998.3,N
1502013115.3,286046999.1,N
1502013135.1,286046996.5,N
1502013136.0,286046996.5,N
1502013155.8,286046998.2,N
1502013175.7,286046998.5,N
1502013195.5,286046997.9,N
1502013215.3,286046996.0,N
1502013235.2,286046996.1,N
1502013255.9,286046994.3,P
1502013275.7,286046995.3,N
1502013295.6,286046998.0,N
1502013315.4,286046998.5,N
1502013335.2,286046995.3,N
1502013355.1,286046993.3,P
1502013356.0,286046993.3,P
1502013375.8,286046997.0,N
1502013395.6,286047000.8,N
1502013415.5,286046998.3,N
1502013435.3,286047000.9,N
1502013455.1,286047000.5,N
1502013475.9,286046999.7,N
1502013495.7,286046999.0,N
1502013515.5,286046997.7,N
1502013535.3,286046996.9,N
1502013555.2,286047001.1,N
1502013575.0,286047000.5,N
1502013575.9,286047000.5,N
1502013595.7,286046998.2,N
